This is the latest recevied weather packets stored in our database for station/object KD4MBW. If no packets are shown the sender has not sent any weather packets the latest 10 day(s).
| Time | Temp. | Humidity | Pressure | Rain* | Wind** | Luminosity | Snow |
|---|---|---|---|---|---|---|---|
| 1777851345 | 23.89° C | 37% | 1017.6 hPa | 0 mm | - | 39 W/m² | - |
| 1777851041 | 23.89° C | 36% | 1017.6 hPa | 0 mm | - | 46 W/m² | - |
| 1777850738 | 23.89° C | 35% | 1017.3 hPa | 0 mm | - | 53 W/m² | - |
| 1777850436 | 23.89° C | 34% | 1017.3 hPa | 0 mm | - | 62 W/m² | - |
| 1777850134 | 23.89° C | 37% | 1017.5 hPa | 0 mm | - | 71 W/m² | - |
| 1777849830 | 23.89° C | 37% | 1017.4 hPa | 0 mm | - | 82 W/m² | - |
| 1777849526 | 23.89° C | 35% | 1017.4 hPa | 0 mm | - | 93 W/m² | - |
| 1777849224 | 23.89° C | 36% | 1017.5 hPa | 0 mm | - | 104 W/m² | - |
| 1777848921 | 24.44° C | 35% | 1017.4 hPa | 0 mm | - | 115 W/m² | - |
| 1777848615 | 24.44° C | 35% | 1017.2 hPa | 0 mm | - | 128 W/m² | - |
| 1777848313 | 24.44° C | 35% | 1017.4 hPa | 0 mm | - | 142 W/m² | - |
| 1777848011 | 24.44° C | 36% | 1017.3 hPa | 0 mm | - | 157 W/m² | - |
| 1777847709 | 25° C | 34% | 1017.2 hPa | 0 mm | - | 172 W/m² | - |
| 1777847405 | 24.44° C | 34% | 1017.3 hPa | 0 mm | - | 187 W/m² | - |
| 1777847103 | 24.44° C | 36% | 1017.4 hPa | 0 mm | - | 203 W/m² | - |
| 1777846801 | 24.44° C | 34% | 1017.4 hPa | 0 mm | - | 219 W/m² | - |
| 1777846499 | 24.44° C | 32% | 1017.6 hPa | 0 mm | - | 235 W/m² | - |
| 1777846195 | 24.44° C | 34% | 1017.4 hPa | 0 mm | - | 252 W/m² | - |
| 1777845886 | 24.44° C | 34% | 1017.3 hPa | 0 mm | - | 267 W/m² | - |
| 1777845583 | 24.44° C | 34% | 1017.4 hPa | 0 mm | - | 283 W/m² | - |
| 1777845280 | 24.44° C | 35% | 1017.6 hPa | 0 mm | - | 301 W/m² | - |
| 1777844978 | 24.44° C | 33% | 1017.5 hPa | 0 mm | - | 317 W/m² | - |
| 1777844675 | 24.44° C | 34% | 1017.5 hPa | 0 mm | - | 334 W/m² | - |
| 1777844372 | 25° C | 34% | 1017.7 hPa | 0 mm | - | 351 W/m² | - |
| 1777844071 | 25° C | 33% | 1017.6 hPa | 0 mm | - | 368 W/m² | - |
* Rain latest hour (hover to see other rain measurements)
** Current wind speed in m/s (hover to see current wind gust speed)